CW0005 Weather Reports


time (UTC)temp
F
wind
direction
speed
knots
gust
knots
rain 1hr
in
rain 24hr
in
rain mn
in
humidity
%
barometer
mb
20260904133006 75 135 0.0 0.0 0.00 0.00 0.00 87 1013.3
20260904131503 74 135 0.0 0.0 0.00 0.00 0.00 87 1013.4
20260904130004 74 135 0.0 0.0 0.00 0.00 0.00 87 1013.1
20260904124506 74 135 0.0 0.0 0.00 0.00 0.00 87 1013.0
20260904123006 73 135 0.0 0.0 0.00 0.00 0.00 87 1013.0
20260904121504 73 135 0.0 0.0 0.00 0.00 0.00 86 1012.9
20260904120010 73 135 0.0 0.0 0.00 0.00 0.00 86 1012.9
20260904114511 73 135 0.0 0.0 0.00 0.00 0.00 85 1012.8
20260904113009 73 135 0.0 0.0 0.00 0.00 0.00 85 1012.6
20260904111505 74 135 0.0 0.0 0.00 0.00 0.00 85 1012.4
20260904110006 74 135 0.0 0.0 0.00 0.00 0.00 84 1012.4
20260904104505 74 135 0.0 0.0 0.00 0.00 0.00 84 1012.3
20260904103005 74 135 0.0 0.0 0.00 0.00 0.00 84 1012.3
20260904101506 74 135 0.0 0.0 0.00 0.00 0.00 84 1012.2
20260904100008 74 135 0.0 0.0 0.00 0.00 0.00 84 1012.1
20260904094520 74 135 0.0 0.0 0.00 0.00 0.00 83 1012.0
20260904093008 75 135 0.0 0.0 0.00 0.00 0.00 82 1011.9
20260904091504 75 135 0.0 0.0 0.00 0.00 0.00 82 1012.0
20260904090006 75 135 0.0 0.0 0.00 0.00 0.00 81 1011.8
20260904084504 75 135 0.0 0.0 0.00 0.00 0.00 81 1011.7
20260904083004 76 135 0.0 0.0 0.00 0.00 0.00 81 1011.5
20260904081507 76 135 0.0 0.0 0.00 0.00 0.00 81 1011.5
20260904080010 76 135 0.0 0.0 0.00 0.00 0.00 80 1011.5
20260904074508 76 135 0.0 0.0 0.00 0.00 0.00 80 1011.7
20260904073028 77 135 0.0 0.0 0.00 0.00 0.00 79 1011.8
20260904071530 77 135 0.0 0.0 0.00 0.00 0.00 79 1011.8
20260904070015 77 135 0.0 0.0 0.00 0.00 0.00 79 1011.9
20260904064523 77 135 0.0 0.0 0.00 0.00 0.00 78 1011.9
20260904063026 77 135 0.0 0.0 0.00 0.00 0.00 78 1011.9
20260904061524 77 135 0.0 0.0 0.00 0.00 0.00 78 1012.0
20260904060012 78 135 0.0 0.0 0.00 0.00 0.00 78 1011.9
20260904054511 78 135 0.0 0.0 0.00 0.00 0.00 77 1011.9
20260904053017 78 135 0.0 0.0 0.00 0.00 0.00 76 1011.9
20260904051526 79 135 0.0 0.0 0.00 0.00 0.00 76 1011.9
20260904050039 79 135 0.0 0.0 0.00 0.00 0.00 75 1012.0
20260904044529 80 135 0.0 0.0 0.00 0.00 0.00 75 1012.0
20260904043015 80 135 0.0 0.0 0.00 0.00 0.00 74 1012.0
20260904041521 80 135 0.0 0.0 0.00 0.00 0.00 73 1012.1
20260904040031 81 135 0.0 0.0 0.00 0.00 0.00 73 1012.1
20260904034531 81 135 0.0 0.0 0.00 0.00 0.00 73 1012.0
20260904033035 81 135 0.0 0.0 0.00 0.00 0.00 72 1011.9
20260904031523 82 135 0.0 0.9 0.00 0.00 0.00 72 1012.0
20260904030023 82 135 0.0 1.7 0.00 0.00 0.00 71 1011.8
20260904024505 82 135 0.0 1.7 0.00 0.00 0.00 71 1011.8
20260904023013 83 135 0.0 0.0 0.00 0.00 0.00 70 1011.7
20260904021519 83 135 0.0 2.6 0.00 0.00 0.00 70 1011.7
20260904020007 84 135 0.0 0.0 0.00 0.00 0.00 69 1011.4
20260904014505 84 135 0.0 0.0 0.00 0.00 0.00 68 1011.3
20260904013006 85 135 0.0 0.0 0.00 0.00 0.00 67 1011.1
20260904011508 86 135 0.0 0.0 0.00 0.00 0.00 65 1011.0
20260904010008 87 135 0.0 0.0 0.00 0.00 0.00 64 1011.1
20260904004502 88 135 0.0 0.0 0.00 0.00 0.00 63 1011.0
20260904003001 88 135 0.0 1.7 0.00 0.00 0.00 62 1011.1
20260904001503 89 135 0.0 2.6 0.00 0.00 0.00 61 1010.9
20260904000014 90 154 0.0 0.9 0.00 0.00 0.00 61 1010.8
20260903234514 91 235 0.0 2.6 0.00 0.00 0.00 58 1010.8
20260903233028 92 3 0.9 3.5 0.00 0.00 0.00 56 1010.7
20260903231508 93 325 0.0 2.6 0.00 0.00 0.00 55 1010.7
20260903230007 94 12 0.0 5.2 0.00 0.00 0.00 54 1010.7
20260903224523 94 73 0.9 3.5 0.00 0.00 0.00 51 1010.6
20260903223020 94 200 0.0 3.5 0.00 0.00 0.00 53 1010.6
20260903221526 95 202 0.9 6.1 0.00 0.00 0.00 52 1010.6
20260903220024 95 167 0.0 3.5 0.00 0.00 0.00 52 1010.6
20260903214512 95 309 0.9 7.0 0.00 0.00 0.00 52 1010.7
20260903213013 95 344 0.9 4.3 0.00 0.00 0.00 53 1010.9
20260903211513 95 340 0.9 3.5 0.00 0.00 0.00 54 1011.0
20260903210029 95 318 0.0 4.3 0.00 0.00 0.00 56 1011.1
20260903204530 94 250 0.0 5.2 0.00 0.00 0.00 56 1011.5
20260903203006 94 216 0.9 4.3 0.00 0.00 0.00 59 1011.7
20260903201502 93 271 0.0 1.7 0.00 0.00 0.00 57 1011.8
20260903200003 93 226 0.0 1.7 0.00 0.00 0.00 56 1012.0
20260903194503 92 268 0.0 0.0 0.00 0.00 0.00 59 1012.3
20260903193006 91 220 0.0 0.0 0.00 0.00 0.00 60 1012.6
20260903191503 91 140 0.0 0.0 0.00 0.00 0.00 58 1012.5
20260903190003 91 254 0.0 0.9 0.00 0.00 0.00 57 1012.8
20260903184510 92 12 0.9 2.6 0.00 0.00 0.00 57 1012.8
20260903183017 92 256 0.0 1.7 0.00 0.00 0.00 58 1012.7
20260903181504 92 29 0.0 3.5 0.00 0.00 0.00 56 1012.8
20260903180002 92 280 0.0 2.6 0.00 0.00 0.00 56 1013.0
20260903174503 91 346 0.9 7.8 0.00 0.00 0.00 56 1013.2
20260903173003 90 323 0.0 2.6 0.00 0.00 0.00 59 1013.1
20260903171503 90 273 0.0 2.6 0.00 0.00 0.00 63 1013.2
20260903170007 89 329 0.9 3.5 0.00 0.00 0.00 60 1013.3
20260903164503 89 25 0.0 2.6 0.00 0.00 0.00 61 1013.2
20260903163004 89 325 0.0 0.0 0.00 0.00 0.00 62 1013.2
20260903161506 88 36 0.0 0.0 0.00 0.00 0.00 61 1013.2
20260903160005 86 82 0.0 0.0 0.00 0.00 0.00 66 1013.3
20260903154503 84 118 0.0 0.0 0.00 0.00 0.00 71 1013.5
20260903153003 83 135 0.0 0.0 0.00 0.00 0.00 71 1013.5
20260903151509 82 135 0.0 0.0 0.00 0.00 0.00 71 1013.6
20260903150014 82 135 0.0 2.6 0.00 0.00 0.00 73 1013.6
20260903144515 81 135 0.0 0.9 0.00 0.00 0.00 75 1013.6
20260903143011 80 135 0.0 0.0 0.00 0.00 0.00 76 1013.6
20260903141510 79 135 0.0 0.0 0.00 0.00 0.00 77 1013.5
20260903140012 77 135 0.0 0.0 0.00 0.00 0.00 80 1013.5
20260903134510 76 135 0.0 0.0 0.00 0.00 0.00 83 1013.9